Location: Isle of Man Observatory
(54.1776°N, 4.6264°W)
Time: 19:03:49
(UTC+02:00)

Envisat - Visible Passes

Search period start: 15 May 2026 00:00
Search period end: 25 May 2026 00:00
Orbit: 761 x 762 km, 98.4° (Epoch: 15 May)

Date Brightness Start Highest point End Pass type
(mag) Time Alt. Az. Time Alt. Az. Time Alt. Az.
15 May 4.5 04:13:45 10° NNE 04:18:13 30° E 04:22:40 10° SSE visible
16 May 5.3 03:36:51 10° NE 03:39:57 16° E 03:43:01 10° ESE visible
16 May 3.1 05:14:32 10° NNE 05:19:39 86° ESE 05:24:43 10° SSW visible
17 May 3.9 04:36:49 10° NNE 04:41:42 45° E 04:46:33 10° S visible
18 May 4.9 03:59:28 10° NE 04:03:33 24° E 04:07:36 10° SE visible
19 May 5.5 03:23:09 10° ENE 03:25:12 12° E 03:27:13 10° ESE visible
19 May 3.3 05:00:01 10° NNE 05:05:06 68° ESE 05:10:09 10° S visible
20 May 4.3 04:22:26 10° NNE 04:27:06 35° E 04:31:42 10° SSE visible
21 May 5.2 03:45:19 10° NE 03:48:51 19° E 03:52:22 10° SE visible
22 May 3.7 04:45:33 10° NNE 04:50:32 53° E 04:55:29 10° S visible
23 May 4.7 04:08:06 10° NE 04:12:26 28° E 04:16:44 10° SSE visible
24 May 5.4 03:31:22 10° NE 03:34:07 14° E 03:36:52 10° ESE visible
24 May 3.2 05:08:48 10° NNE 05:13:54 79° ESE 05:18:58 10° SSW visible
